Regional Weather Roundup
Issued by NWS Cleveland, OH

Home | Current Version | Previous Version | Text Only | Print | Product List | Glossary Off
Versions: 1 2 3 4 5 6 7 8 9 10 11 12 13 14 15 16 17 18 19 20 21 22 23 24 25 26 27 28 29 30 31 32 33 34 35 36 37 38 39 40 41 42 43 44 45 46 47 48 49 50

000
ASUS41 KCLE 281310
RWRCLE
OHIO REGIONAL WEATHER ROUNDUP
NATIONAL WEATHER SERVICE WILMINGTON, OH
800 AM EST SAT FEB 28 2015

NOTE: "FAIR" INDICATES FEW OR NO CLOUDS BELOW 12,000 FEET WITH NO
SIGNIFICANT WEATHER AND/OR OBSTRUCTIONS TO VISIBILITY.

OHZ001>008-015>018-024>027-034-035-043-044-281400-
   NORTHWEST OHIO

CITY           SKY/WX    TMP DP  RH WIND       PRES   REMARKS
DEFIANCE       PTCLDY    -6 -12  75 CALM      30.75R
FINDLAY        PTCLDY    -2  -8  76 SE3       30.73R
TOLEDO EXPRESS MOCLDY    -7 -10  87 CALM      30.74R
TOLEDO EXEC    PTCLDY    -1  -7  75 CALM      30.76R
LIMA           PTCLDY     4  -5  66 SE3       30.71R
$$

OHZ009>014-019>023-028>033-038-089-281400-
   NORTHEAST OHIO

CITY           SKY/WX    TMP DP  RH WIND       PRES   REMARKS
CLE-HOPKINS    PTCLDY    -5 -10  79 SE3       30.77S
CLE-LAKEFRONT  PTCLDY     4  -4  69 SE9       30.76R WCI -10
CUY CO. ARPT   MOCLDY    -2  -6  84 SE5       30.74S WCI -12
LORAIN-ELYRIA  PTCLDY    -8 -11  86 S5        30.75R WCI -19
ASHTABULA      MOSUNNY   -8 -13  78 S3        30.75R
AKRON-CANTON   MOCLDY     0  -5  79 CALM      30.71R HAZE
WOOSTER        MOCLDY   -10 -12  91 CALM      30.72R FOG
MANSFIELD      MOCLDY    -3  -6  87 S3        30.69R
YOUNGSTOWN     PTSUNNY   -8 -11  86 E5        30.71R WCI -19
$$

OHZ042-051>053-060>062-070>072-077>081-281400-
  SOUTHWEST OHIO

CITY           SKY/WX    TMP DP  RH WIND       PRES   REMARKS
CINC-COVINGTON CLOUDY    13   1  59 E8        30.70R WCI   2
CINC-LUNKEN    CLOUDY    12   1  61 N6        30.75S WCI   3
HAMILTON       CLOUDY    12   2  64 NE3       30.75R
DAYTON         MOCLDY    10  -1  61 SE7       30.71R WCI  -1
WRIGHT-PAT AFB CLOUDY     6  -2  71 NE2       30.73R
DAYTON GENERAL CLOUDY    10  -2  58 E6        30.70R WCI   0
WILMINGTON     CLOUDY     8  -4  58 E8        30.70R WCI  -4
$$

OHZ036-037-039>041-045>050-054>059-063>069-073>076-082>088-281400-
  CENTRAL AND SOUTHEAST OHIO

CITY           SKY/WX    TMP DP  RH WIND       PRES   REMARKS
COLUMBUS       MOCLDY     6  -4  63 CALM      30.74R
OSU AIRPORT    MOCLDY     5  -4  66 CALM      30.73R
BOLTON FIELD   MOCLDY     7  -2  66 CALM      30.73R
RICKENBACK AFB MOCLDY     4  -3  72 NE5       30.74R WCI  -6
NEWARK         FAIR      -3  -8  79 CALM      30.74R
MARION         PTCLDY    -9 -13  83 CALM      30.72R FOG
LANCASTER      MOCLDY     2  -3  80 CALM      30.74R
ZANESVILLE     PTCLDY     0  -4  83 CALM      30.73R
NEW PHILLY     MOCLDY     0  -5  79 CALM      30.76R HAZE
$$



USA.gov is the U.S. government's official web portal to all federal, state and local government web resources and services.